This is the latest recevied weather packets stored in our database for station/object KC0RPY. If no packets are shown the sender has not sent any weather packets the latest 1 day(s).
| Time | Temp. | Humidity | Pressure | Rain* | Wind** | Luminosity | Snow |
|---|---|---|---|---|---|---|---|
| 1778020904 | 8.89° C | 97% | 1012.5 hPa | 0 mm | 0.89 m/s, 186° | 90 W/m² | - |
| 1778020601 | 8.89° C | 97% | 1012.5 hPa | 0 mm | 0 m/s | 118 W/m² | - |
| 1778020297 | 8.89° C | 97% | 1012.5 hPa | 0 mm | 0.45 m/s, 123° | 130 W/m² | - |
| 1778019993 | 8.33° C | 97% | 1012.2 hPa | 0 mm | 0.45 m/s, 117° | 109 W/m² | - |
| 1778019689 | 8.33° C | 97% | 1012.2 hPa | 0 mm | 0.89 m/s, 111° | 92 W/m² | - |
| 1778019386 | 8.33° C | 97% | 1012.5 hPa | 0 mm | 0.45 m/s, 122° | 113 W/m² | - |
| 1778019083 | 8.89° C | 97% | 1012.8 hPa | 0 mm | 0 m/s | 136 W/m² | - |
| 1778018781 | 8.89° C | 97% | 1012.8 hPa | 0 mm | 0.45 m/s, 118° | 130 W/m² | - |
| 1778018478 | 8.33° C | 97% | 1012.5 hPa | 0 mm | 0.45 m/s, 106° | 147 W/m² | - |
| 1778018175 | 8.89° C | 97% | 1012.8 hPa | 0 mm | 0.45 m/s, 102° | 170 W/m² | - |
| 1778017873 | 8.33° C | 97% | 1012.5 hPa | 0 mm | 0.45 m/s, 110° | 191 W/m² | - |
| 1778017571 | 8.33° C | 97% | 1012.5 hPa | 0 mm | 0 m/s | 211 W/m² | - |
| 1778017268 | 8.33° C | 97% | 1012.8 hPa | 0 mm | 0 m/s | 152 W/m² | - |
| 1778016966 | 8.33° C | 97% | 1012.5 hPa | 0 mm | 0.45 m/s, 116° | 281 W/m² | - |
| 1778016662 | 8.33° C | 97% | 1012.8 hPa | 0 mm | 0 m/s | 218 W/m² | - |
| 1778016358 | 8.33° C | 97% | 1012.8 hPa | 0 mm | 0.45 m/s, 120° | 198 W/m² | - |
| 1778016065 | 8.33° C | 97% | 1013.2 hPa | 0 mm | 0.89 m/s, 57° | 217 W/m² | - |
| 1778015752 | 8.33° C | 97% | 1012.8 hPa | 0 mm | 0.89 m/s, 69° | 269 W/m² | - |
| 1778015450 | 8.33° C | 97% | 1012.8 hPa | 0 mm | 0.89 m/s, 71° | 222 W/m² | - |
| 1778015146 | 8.33° C | 97% | 1012.8 hPa | 0 mm | 1.34 m/s, 37° | 207 W/m² | - |
| 1778014843 | 8.33° C | 97% | 1012.8 hPa | 0 mm | 0.45 m/s, 116° | 188 W/m² | - |
| 1778014541 | 7.78° C | 97% | 1013.2 hPa | 0 mm | 0.89 m/s, 78° | 161 W/m² | - |
| 1778014238 | 7.78° C | 97% | 1012.8 hPa | 0 mm | 0.89 m/s, 97° | 165 W/m² | - |
| 1778013936 | 8.33° C | 97% | 1012.8 hPa | 0 mm | 0.89 m/s, 98° | 151 W/m² | - |
| 1778013633 | 8.89° C | 97% | 1012.5 hPa | 0 mm | 0.89 m/s, 66° | 196 W/m² | - |
* Rain latest hour (hover to see other rain measurements)
** Current wind speed in m/s (hover to see current wind gust speed)